TimeEDT,TemperatureF,Dew PointF,Humidity,Sea Level PressureIn,VisibilityMPH,Wind Direction,Wind SpeedMPH,Gust SpeedMPH,PrecipitationIn,Events,Conditions,WindDirDegrees,DateUTC
12:15 AM,52.2,41.4,67,30.07,10.0,ESE,3.5,-,N/A,,Clear,120,2013-10-12 04:15:00
12:35 AM,52.9,42.3,67,30.07,10.0,SE,4.6,-,N/A,,Clear,130,2013-10-12 04:35:00
12:55 AM,52.5,42.4,69,30.06,10.0,SE,4.6,-,N/A,,Clear,140,2013-10-12 04:55:00
1:15 AM,54.0,43.7,68,30.06,10.0,SE,5.8,-,N/A,,Clear,140,2013-10-12 05:15:00
1:35 AM,53.6,44.4,71,30.06,10.0,ESE,5.8,-,N/A,,Clear,120,2013-10-12 05:35:00
1:55 AM,51.4,43.2,73,30.06,10.0,ESE,4.6,-,N/A,,Clear,120,2013-10-12 05:55:00
2:15 AM,51.4,43.9,75,30.06,10.0,East,5.8,-,N/A,,Clear,100,2013-10-12 06:15:00
2:35 AM,49.1,43.3,81,30.06,10.0,East,4.6,-,N/A,,Clear,90,2013-10-12 06:35:00
2:55 AM,49.1,43.7,82,30.06,10.0,East,4.6,-,N/A,,Clear,90,2013-10-12 06:55:00
3:14 AM,51.4,45.9,81,30.06,10.0,SE,6.9,-,N/A,,Clear,130,2013-10-12 07:14:00
3:35 AM,51.4,45.1,79,30.06,10.0,ESE,6.9,-,N/A,,Clear,120,2013-10-12 07:35:00
3:54 AM,51.4,45.9,81,30.06,10.0,SE,3.5,-,N/A,,Clear,130,2013-10-12 07:54:00
4:15 AM,45.1,41.4,87,30.06,10.0,Calm,Calm,-,N/A,,Clear,0,2013-10-12 08:15:00
4:35 AM,44.1,40.6,88,30.05,10.0,Calm,Calm,-,N/A,,Clear,0,2013-10-12 08:35:00
4:54 AM,43.9,40.8,89,30.05,10.0,Calm,Calm,-,N/A,,Clear,0,2013-10-12 08:54:00
5:15 AM,42.4,39.4,89,30.05,10.0,Calm,Calm,-,N/A,,Clear,0,2013-10-12 09:15:00
5:35 AM,41.7,39.0,90,30.05,10.0,Calm,Calm,-,N/A,,Clear,0,2013-10-12 09:35:00
5:54 AM,42.3,39.7,91,30.05,10.0,Calm,Calm,-,N/A,,Clear,0,2013-10-12 09:54:00
6:15 AM,41.5,38.8,90,30.05,10.0,Calm,Calm,-,N/A,,Clear,0,2013-10-12 10:15:00
6:35 AM,41.4,38.1,88,30.05,10.0,Calm,Calm,-,N/A,,Clear,0,2013-10-12 10:35:00
6:54 AM,45.1,41.0,85,30.05,10.0,ENE,3.5,-,N/A,,Clear,70,2013-10-12 10:54:00
7:15 AM,43.5,37.9,81,30.05,10.0,East,3.5,-,N/A,,Clear,100,2013-10-12 11:15:00
7:35 AM,49.1,41.9,76,30.05,10.0,ESE,6.9,-,N/A,,Clear,120,2013-10-12 11:35:00
7:54 AM,51.4,43.9,75,30.05,10.0,SE,6.9,-,N/A,,Clear,130,2013-10-12 11:54:00
8:15 AM,51.4,43.7,75,30.05,10.0,SE,6.9,-,N/A,,Clear,130,2013-10-12 12:15:00
8:35 AM,52.9,44.8,74,30.05,10.0,SE,6.9,-,N/A,,Clear,130,2013-10-12 12:35:00
8:54 AM,55.9,47.1,72,30.05,10.0,SE,4.6,-,N/A,,Clear,130,2013-10-12 12:54:00
9:15 AM,56.5,46.9,70,30.05,10.0,SE,6.9,-,N/A,,Clear,130,2013-10-12 13:15:00
9:35 AM,59.0,47.5,66,30.05,10.0,SE,5.8,-,N/A,,Clear,140,2013-10-12 13:35:00
9:54 AM,59.2,47.1,64,30.05,10.0,SSE,5.8,-,N/A,,Clear,150,2013-10-12 13:54:00
10:15 AM,61.7,47.8,60,30.05,10.0,SSE,9.2,-,N/A,,Clear,150,2013-10-12 14:15:00
10:35 AM,63.1,48.6,59,30.05,10.0,SSE,8.1,-,N/A,,Clear,160,2013-10-12 14:35:00
10:54 AM,64.8,48.6,56,30.05,10.0,South,9.2,-,N/A,,Clear,180,2013-10-12 14:54:00
11:15 AM,66.6,49.1,53,30.05,10.0,South,6.9,-,N/A,,Clear,170,2013-10-12 15:15:00
11:35 AM,69.1,50.5,52,30.04,10.0,South,8.1,-,N/A,,Clear,190,2013-10-12 15:35:00
11:54 AM,71.6,52.9,52,30.03,10.0,South,9.2,-,N/A,,Clear,170,2013-10-12 15:54:00
12:15 PM,71.6,52.2,50,30.03,10.0,South,12.7,-,N/A,,Clear,170,2013-10-12 16:15:00
12:35 PM,72.1,52.3,50,30.03,10.0,South,12.7,17.3,N/A,,Clear,170,2013-10-12 16:35:00
12:54 PM,73.2,53.2,49,30.02,10.0,South,11.5,17.3,N/A,,Clear,170,2013-10-12 16:54:00
1:15 PM,74.3,52.5,46,30.02,10.0,South,13.8,18.4,N/A,,Clear,170,2013-10-12 17:15:00
1:34 PM,76.6,54.0,45,30.00,10.0,South,10.4,24.2,N/A,,Clear,170,2013-10-12 17:34:00
1:55 PM,76.6,52.7,43,29.99,10.0,SSE,12.7,20.7,N/A,,Clear,160,2013-10-12 17:55:00
2:15 PM,76.6,50.0,39,29.99,10.0,South,16.1,21.9,N/A,,Clear,190,2013-10-12 18:15:00
2:34 PM,76.6,50.2,39,29.98,10.0,South,13.8,-,N/A,,Clear,180,2013-10-12 18:34:00
2:55 PM,76.6,49.3,38,29.98,10.0,South,19.6,25.3,N/A,,Clear,180,2013-10-12 18:55:00
3:15 PM,76.6,48.6,37,29.98,10.0,SSE,15.0,20.7,N/A,,Clear,160,2013-10-12 19:15:00
3:35 PM,76.6,49.8,39,29.98,10.0,South,12.7,20.7,N/A,,Clear,180,2013-10-12 19:35:00
3:55 PM,76.6,50.0,39,29.98,10.0,South,12.7,19.6,N/A,,Clear,190,2013-10-12 19:55:00
4:14 PM,76.6,48.4,37,29.98,10.0,SSW,18.4,23.0,N/A,,Clear,200,2013-10-12 20:14:00
4:35 PM,74.3,49.6,42,29.98,10.0,South,12.7,18.4,N/A,,Clear,180,2013-10-12 20:35:00
4:55 PM,76.1,51.1,41,29.98,10.0,SSW,12.7,18.4,N/A,,Clear,200,2013-10-12 20:55:00
5:14 PM,74.3,50.2,43,29.98,10.0,SSW,12.7,-,N/A,,Clear,200,2013-10-12 21:14:00
5:35 PM,72.5,49.3,44,29.99,10.0,South,13.8,24.2,N/A,,Clear,190,2013-10-12 21:35:00
5:55 PM,71.6,49.3,45,29.99,10.0,South,13.8,21.9,N/A,,Clear,190,2013-10-12 21:55:00
6:14 PM,71.6,51.3,49,30.00,10.0,South,8.1,-,N/A,,Clear,190,2013-10-12 22:14:00
6:35 PM,71.6,53.6,53,30.01,10.0,SSW,9.2,-,N/A,,Mostly Cloudy,200,2013-10-12 22:35:00
6:55 PM,71.6,55.4,57,30.01,10.0,SW,6.9,-,N/A,,Overcast,220,2013-10-12 22:55:00
7:14 PM,71.4,56.3,59,30.01,10.0,SW,4.6,-,N/A,,Mostly Cloudy,220,2013-10-12 23:14:00
7:35 PM,66.6,56.3,69,30.02,10.0,SSW,12.7,-,N/A,Rain,Rain,210,2013-10-12 23:35:00
7:55 PM,64.0,58.1,81,30.03,10.0,SW,8.1,-,N/A,Rain,Light Rain,220,2013-10-12 23:55:00
8:14 PM,62.8,58.6,86,30.03,10.0,SSW,5.8,-,N/A,Rain,Light Rain,210,2013-10-13 00:14:00
8:35 PM,61.7,58.1,88,30.04,10.0,SSW,8.1,-,N/A,Rain,Rain,210,2013-10-13 00:35:00
8:54 PM,61.7,58.1,88,30.04,7.0,SSW,6.9,-,N/A,Rain,Light Rain,210,2013-10-13 00:54:00
9:14 PM,61.7,58.5,89,30.04,5.0,SSW,8.1,-,N/A,Rain,Rain,210,2013-10-13 01:14:00
9:35 PM,61.7,58.5,89,30.04,10.0,SSW,8.1,-,N/A,,Overcast,200,2013-10-13 01:35:00
9:54 PM,61.7,58.5,89,30.05,10.0,South,5.8,-,N/A,,Overcast,190,2013-10-13 01:54:00
10:14 PM,61.7,58.5,89,30.05,10.0,SSW,9.2,-,N/A,,Overcast,200,2013-10-13 02:14:00
10:35 PM,61.7,58.5,89,30.05,10.0,SSW,6.9,-,N/A,,Overcast,210,2013-10-13 02:35:00
10:54 PM,61.7,58.6,90,30.05,10.0,SW,9.2,-,N/A,,Overcast,220,2013-10-13 02:54:00
11:15 PM,61.7,58.5,89,30.06,10.0,WSW,10.4,17.3,N/A,,Overcast,250,2013-10-13 03:15:00
11:35 PM,59.4,55.4,87,30.07,10.0,WSW,8.1,-,N/A,,Mostly Cloudy,250,2013-10-13 03:35:00
11:54 PM,59.0,55.4,88,30.08,10.0,West,9.2,-,N/A,,Scattered Clouds,260,2013-10-13 03:54:00